Location: Prague
(50.0830°N, 14.4670°E)
Time: 07:17:27
(UTC+02:00)

X-37B - Pass Details

Date: 28 September 2021
Orbit: 342 x 346 km, 45.0° (Epoch: 22 October)

Event Time Altitude Azimuth Distance (km) Brightness Sun altitude
Exits shadow 06:02:33 14° 241° (WSW) 1,105 2.3 -9.6°
Maximum altitude 06:04:36 29° 183° (S) 665 1.7 -9.3°
Drops below altitude 10° 06:07:11 10° 121° (ESE) 1,295 4.1 -8.9°
Sets 06:09:20 0° 109° (ESE) 2,135 5.6 -8.6°
